Flag for U.S.A. Weather past 2 weeks in Key West, Florida, U.S.A.

Now
83 °F

Sunny.


Feels Like: 89 °F
Forecast: 77 / 83 °F
Wind: 15 mph from South

Location: Key West International Airport


UV Index: 7 (High)

Visibility: 10 mi


Pressure: 30.01 "Hg

Humidity: 72%

Dew point: 73 °F

Location of Key WestLocation

Historic Weather in Key West

°F

Key West temperature yesterday

Maximum temperature yesterday: 85 °F (at 2:53 PM)
Minimum temperature yesterday: 76 °F (at 12:53 AM)
Average temperature yesterday: 80 °F

Past Weeks' High & Low Weather Summary

 TemperatureHumidityPressure
High85 °F (Apr 17, 2:53 PM)93% (Apr 8, 6:53 PM)30.23 "Hg (Apr 8, 6:53 PM)
Low67 °F (Apr 10, 12:53 AM)50% (Apr 9, 12:53 PM)29.83 "Hg (Apr 8, 3:53 PM)
Average77 °F75%30.02 "Hg
* Reported Apr 3 1:53 PM — Apr 18 1:53 PM, Key West, Weather by CustomWeather, © 2014

Note: Actual official high and low records may vary slightly from our data, if they occured in-between our weather recording intervals... More about our weather records

Advertising

Historic Weather Conditions — Data for Previous 24 hours

 ConditionsComfort  
Time TempWeatherWind HumidityBarometerVisibility
1:53 PM
Apr 18
83 °FSunny.15 mph72%30.01 "Hg10 mi
12:53 PM84 °FPassing clouds.15 mph70%30.02 "Hg10 mi
11:53 AM83 °FSunny.16 mph72%30.03 "Hg10 mi
10:53 AM81 °FScattered clouds.16 mph77%30.03 "Hg10 mi
9:53 AM81 °FSunny.16 mph77%30.03 "Hg10 mi
8:53 AM80 °FPassing clouds.12 mph76%30.03 "Hg10 mi
7:53 AM79 °FPassing clouds.15 mph77%30.03 "Hg10 mi
6:53 AM79 °FPassing clouds.15 mph77%30.01 "Hg10 mi
5:53 AM79 °FClear.18 mph74%29.97 "Hg10 mi
4:53 AM79 °FClear.18 mph74%29.98 "Hg10 mi
3:53 AM78 °FPassing clouds.17 mph82%29.99 "Hg10 mi
2:53 AM79 °FPassing clouds.15 mph79%30.01 "Hg10 mi
1:53 AM79 °FPassing clouds.17 mph79%30.02 "Hg10 mi
12:53 AM79 °FPassing clouds.17 mph82%30.04 "Hg10 mi
11:53 PM
Apr 17
79 °FClear.16 mph82%30.05 "Hg10 mi
10:53 PM79 °FPassing clouds.13 mph82%30.05 "Hg10 mi
9:53 PM79 °FPassing clouds.17 mph79%30.05 "Hg10 mi
8:53 PM79 °FPassing clouds.13 mph82%30.03 "Hg10 mi
7:53 PM80 °FPassing clouds.17 mph79%30.02 "Hg10 mi
6:53 PM81 °FPassing clouds.15 mph77%30.01 "Hg10 mi
5:53 PM83 °FPassing clouds.17 mph74%30.02 "Hg10 mi
4:53 PM83 °FSunny.17 mph74%30.01 "Hg10 mi
3:53 PM84 °FScattered clouds.14 mph74%30.03 "Hg10 mi
2:53 PM85 °FSunny.15 mph72%30.05 "Hg10 mi
Weather by CustomWeather, © 2014

See weather overview